Rensselaer, IN

5:56 PM CST on February 06, 2016 (GMT -0600)
Jasper County

Weather History for KRZL - October, 2012

Change the Weather History Date:

Sunday, October 7, 2012

  Actual Average (KVPZ) Record (KVPZ)
Temperature  
Mean Temperature 40 °F 55 °F  
Max Temperature 51 °F 66 °F 88 °F (2007)
Min Temperature 30 °F 44 °F 30 °F (2000)
Degree Days  
Heating Degree Days 24 10  
Month to date heating degree days 67  
Since 1 July heating degree days 197  
Cooling Degree Days 0 1  
Month to date cooling degree days 7  
Year to date cooling degree days 709  
Moisture  
Dew Point 28 °F    
Average Humidity 65    
Maximum Humidity 100    
Minimum Humidity 30    
Precipitation  
Precipitation 0.01 in 0.09 in 0.66 in (2008)
Month to date precipitation 0.68  
Year to date precipitation 29.43  
Sea Level Pressure  
Sea Level Pressure 30.16 in    
Wind  
Wind Speed 5 mph (West)    
Max Wind Speed 12 mph    
Max Gust Speed 17 mph    
Visibility 10 miles    
Events      
T = Trace of Precipitation, MM = Missing Value Source: NWS Daily Summary

Daily Weather History Graph

Daily Weather History Graph

Search for Another Location

Airport or City:

Trip Planner

Search our weather history database for the weather conditions in past years. The results will help you decide how hot, cold, wet, or windy it might be!

Date:

Astronomy

Oct. 07, 2012 Rise Set
Actual Time 6:52 AM CDT 6:20 PM CDT
Civil Twilight 6:24 AM CDT 6:47 PM CDT
Nautical Twilight 5:52 AM CDT 7:19 PM CDT
Astronomical Twilight 5:20 AM CDT 7:51 PM CDT
Moon 11:29 PM CDT (10/7) 1:30 PM CDT (10/7)
Length of Visible Light 12h 22m
Length of Day
11h 27m
Waning Gibbous, 56% of the Moon is Illuminated
Oct 7
Waning Gibbous
Oct 8
Last Quarter
Oct 15
New
Oct 21
First Quarter
Oct 29
Full

Hourly Weather History & Observations

Time (CDT) Temp. Windchill Dew Point Humidity Pressure Visibility Wind Dir Wind Speed Gust Speed Precip Events Conditions
12:15 AM 42.8 °F 39.3 °F 30.2 °F 61% 30.17 in 10.0 mi West 5.8 mph - N/A   Overcast
12:35 AM 42.8 °F 40.1 °F 30.2 °F 61% 30.16 in 10.0 mi WNW 4.6 mph - N/A   Overcast
12:55 AM 41.0 °F 38.0 °F 30.2 °F 65% 30.16 in 10.0 mi WNW 4.6 mph - N/A   Overcast
1:15 AM 41.0 °F 38.0 °F 32.0 °F 70% 30.16 in 10.0 mi West 4.6 mph - N/A   Overcast
1:35 AM 41.0 °F 38.0 °F 32.0 °F 70% 30.16 in 10.0 mi West 4.6 mph - N/A   Overcast
1:55 AM 41.0 °F 38.0 °F 32.0 °F 70% 30.16 in 10.0 mi West 4.6 mph - N/A   Scattered Clouds
2:15 AM 39.2 °F 37.0 °F 32.0 °F 75% 30.16 in 10.0 mi West 3.5 mph - N/A   Clear
2:35 AM 37.4 °F 33.8 °F 32.0 °F 81% 30.16 in 10.0 mi West 4.6 mph - N/A   Clear
2:55 AM 37.4 °F 34.9 °F 32.0 °F 81% 30.16 in 10.0 mi West 3.5 mph - N/A   Mostly Cloudy
3:15 AM 37.4 °F 33.8 °F 32.0 °F 81% 30.16 in 10.0 mi West 4.6 mph - N/A   Scattered Clouds
3:35 AM 37.4 °F 33.8 °F 32.0 °F 81% 30.16 in 10.0 mi West 4.6 mph - N/A   Clear
3:55 AM 37.4 °F 34.9 °F 32.0 °F 81% 30.15 in 10.0 mi WSW 3.5 mph - N/A   Clear
4:15 AM 35.6 °F 32.8 °F 32.0 °F 87% 30.15 in 10.0 mi West 3.5 mph - N/A   Clear
4:35 AM 37.4 °F 34.9 °F 32.0 °F 81% 30.15 in 10.0 mi WSW 3.5 mph - N/A   Scattered Clouds
4:55 AM 37.4 °F 34.9 °F 32.0 °F 81% 30.14 in 10.0 mi West 3.5 mph - N/A   Scattered Clouds
5:15 AM 35.6 °F 32.8 °F 32.0 °F 87% 30.14 in 10.0 mi West 3.5 mph - N/A   Scattered Clouds
5:35 AM 35.6 °F 32.8 °F 32.0 °F 87% 30.14 in 10.0 mi WSW 3.5 mph - N/A   Clear
5:55 AM 35.6 °F 32.8 °F 32.0 °F 87% 30.14 in 10.0 mi WSW 3.5 mph - N/A   Clear
6:15 AM 35.6 °F 31.7 °F 33.8 °F 93% 30.15 in 10.0 mi WSW 4.6 mph - N/A   Scattered Clouds
6:55 AM 35.6 °F 31.7 °F 32.0 °F 87% 30.15 in 10.0 mi West 4.6 mph - N/A   Mostly Cloudy
7:15 AM 35.6 °F 31.7 °F 32.0 °F 87% 30.15 in 10.0 mi West 4.6 mph - N/A   Scattered Clouds
7:35 AM 37.4 °F 33.8 °F 32.0 °F 81% 30.16 in 10.0 mi West 4.6 mph - N/A   Clear
7:55 AM 37.4 °F 33.8 °F 32.0 °F 81% 30.16 in 10.0 mi West 4.6 mph - N/A   Clear
8:15 AM 39.2 °F 35.0 °F 33.8 °F 81% 30.17 in 10.0 mi West 5.8 mph - N/A   Scattered Clouds
8:35 AM 41.0 °F 35.8 °F 32.0 °F 70% 30.18 in 10.0 mi West 8.1 mph - N/A   Mostly Cloudy
8:55 AM 41.0 °F 35.8 °F 32.0 °F 70% 30.18 in 10.0 mi West 8.1 mph - N/A   Scattered Clouds
9:15 AM 42.8 °F 38.0 °F 32.0 °F 66% 30.18 in 10.0 mi West 8.1 mph - N/A   Mostly Cloudy
9:35 AM 44.6 °F 41.4 °F 32.0 °F 61% 30.18 in 10.0 mi West 5.8 mph - N/A   Scattered Clouds
9:55 AM 44.6 °F 40.7 °F 30.2 °F 57% 30.19 in 10.0 mi West 6.9 mph - N/A   Clear
10:15 AM 46.4 °F 43.5 °F 28.4 °F 50% 30.19 in 10.0 mi West 5.8 mph - N/A   Mostly Cloudy
10:35 AM 46.4 °F 43.5 °F 28.4 °F 50% 30.19 in 10.0 mi WNW 5.8 mph 16.1 mph N/A   Scattered Clouds
10:55 AM 48.2 °F - 28.4 °F 46% 30.18 in 10.0 mi West 10.4 mph 16.1 mph N/A   Scattered Clouds
11:15 AM 46.4 °F 43.5 °F 26.6 °F 46% 30.19 in 10.0 mi WNW 5.8 mph - N/A   Mostly Cloudy
11:35 AM 46.4 °F 41.5 °F 26.6 °F 46% 30.18 in 10.0 mi West 10.4 mph - N/A   Mostly Cloudy
11:55 AM 48.2 °F - 26.6 °F 43% 30.18 in 10.0 mi West 11.5 mph - N/A   Mostly Cloudy
12:15 PM 50.0 °F - 26.6 °F 40% 30.18 in 10.0 mi West 11.5 mph 16.1 mph N/A   Mostly Cloudy
12:35 PM 50.0 °F - 26.6 °F 40% 30.18 in 10.0 mi WNW 8.1 mph - N/A   Overcast
12:55 PM 48.2 °F - 23.0 °F 37% 30.18 in 10.0 mi WNW 8.1 mph - N/A   Overcast
1:15 PM 50.0 °F - 24.8 °F 37% 30.17 in 10.0 mi WNW 9.2 mph - N/A   Overcast
1:35 PM 48.2 °F - 23.0 °F 37% 30.16 in 10.0 mi West 5.8 mph 16.1 mph N/A   Overcast
1:55 PM 48.2 °F - 23.0 °F 37% 30.16 in 10.0 mi WNW 8.1 mph 16.1 mph N/A   Overcast
2:35 PM 51.8 °F - 23.0 °F 33% 30.16 in 10.0 mi WSW 8.1 mph 17.3 mph N/A   Overcast
2:55 PM 50.0 °F - 21.2 °F 32% 30.15 in 10.0 mi West 9.2 mph - N/A   Mostly Cloudy
3:15 PM 50.0 °F - 23.0 °F 35% 30.15 in 10.0 mi WNW 9.2 mph - N/A   Overcast
3:35 PM 50.0 °F - 23.0 °F 35% 30.15 in 10.0 mi West 11.5 mph - N/A   Mostly Cloudy
3:55 PM 50.0 °F - 21.2 °F 32% 30.15 in 10.0 mi West 6.9 mph - N/A   Scattered Clouds
4:15 PM 50.0 °F - 21.2 °F 32% 30.15 in 10.0 mi West 4.6 mph - N/A   Scattered Clouds
4:35 PM 50.0 °F - 19.4 °F 30% 30.14 in 10.0 mi West 9.2 mph - 0.01 in   Scattered Clouds
4:55 PM 50.0 °F - 21.2 °F 32% 30.15 in 10.0 mi West 10.4 mph - 0.01 in   Scattered Clouds
5:15 PM 48.2 °F - 19.4 °F 32% 30.14 in 10.0 mi West 5.8 mph - N/A   Scattered Clouds
5:35 PM 46.4 °F 42.4 °F 21.2 °F 37% 30.15 in 10.0 mi West 8.1 mph - N/A   Clear
5:55 PM 46.4 °F 43.5 °F 23.0 °F 40% 30.14 in 10.0 mi WSW 5.8 mph - N/A   Clear
6:15 PM 44.6 °F 42.2 °F 23.0 °F 43% 30.14 in 10.0 mi WSW 4.6 mph - N/A   Clear
6:35 PM 42.8 °F 40.1 °F 24.8 °F 49% 30.15 in 10.0 mi WSW 4.6 mph - N/A   Clear
6:55 PM 41.0 °F 38.0 °F 26.6 °F 57% 30.16 in 10.0 mi WSW 4.6 mph - N/A   Clear
7:15 PM 37.4 °F 34.9 °F 26.6 °F 65% 30.17 in 10.0 mi SW 3.5 mph - N/A   Clear
7:35 PM 37.4 °F 34.9 °F 28.4 °F 70% 30.18 in 10.0 mi SW 3.5 mph - N/A   Clear
7:55 PM 37.4 °F 34.9 °F 28.4 °F 70% 30.18 in 10.0 mi WSW 3.5 mph - N/A   Clear
8:15 PM 35.6 °F - 28.4 °F 75% 30.18 in 10.0 mi Calm Calm - N/A   Clear
8:35 PM 32.0 °F - 30.2 °F 93% 30.18 in 10.0 mi Calm Calm - N/A   Clear
8:55 PM 32.0 °F - 30.2 °F 93% 30.18 in 10.0 mi Calm Calm - N/A   Clear
9:15 PM 32.0 °F 28.7 °F 30.2 °F 93% 30.18 in 10.0 mi SSW 3.5 mph - N/A   Clear
9:35 PM 32.0 °F - 30.2 °F 93% 30.18 in 10.0 mi Calm Calm - N/A   Clear
9:55 PM 32.0 °F 28.7 °F 30.2 °F 93% 30.18 in 10.0 mi SSW 3.5 mph - N/A   Clear
10:15 PM 32.0 °F 28.7 °F 30.2 °F 93% 30.18 in 10.0 mi SSW 3.5 mph - N/A   Clear
10:35 PM 32.0 °F 28.7 °F 30.2 °F 93% 30.18 in 10.0 mi South 3.5 mph - N/A   Clear
10:55 PM 30.2 °F - 30.2 °F 100% 30.18 in 10.0 mi Calm Calm - N/A   Clear
11:15 PM 30.2 °F 26.7 °F 28.4 °F 93% 30.18 in 10.0 mi SSW 3.5 mph - N/A   Clear
11:35 PM 32.0 °F 28.7 °F 30.2 °F 93% 30.18 in 10.0 mi SSW 3.5 mph - N/A   Clear
11:55 PM 32.0 °F 28.7 °F 30.2 °F 93% 30.18 in 10.0 mi SSW 3.5 mph - N/A   Clear